This demonstration page uses our WeatherBlox Daily Observations layout. Learn more.

Left ArrowRight Arrow

31.31129, -92.44514

Hourly Observations for December 31, 2019

Temp ( °F °C ) Dew Point ( °F °C ) Humidity (%) Winds ( mph kmh ) Pressure ( in mb ) Visibility ( mi km ) Precip ( " mm )
12:53 am 00:53 Clear 40 4.4 32 0 73 73 NNW 3 6 30.17 1022 10 16 0.00 0.00
1:53 am 01:53 Clear 39 3.9 33 0.6 79 79 Calm 30.18 1022 10 16 0.00 0.00
2:53 am 02:53 Clear 37 2.8 33 0.6 86 86 Calm 30.18 1022 10 16 0.00 0.00
3:53 am 03:53 Clear 36 2.2 33 0.6 89 89 Calm 30.19 1023 10 16 0.00 0.00
4:53 am 04:53 Clear 35 1.7 32 0 89 89 W 3 6 30.20 1023 10 16 0.00 0.00
5:53 am 05:53 Clear 34 1.1 31 -0.6 89 89 NW 5 7 30.22 1023 10 16 0.00 0.00
6:53 am 06:53 Clear 35 1.7 32 0 89 89 Calm 30.24 1024 10 16 0.00 0.00
7:53 am 07:53 Sunny 35 1.7 31 -0.6 85 85 NW 3 6 30.25 1024 10 16 0.00 0.00
8:53 am 08:53 Sunny 41 5 34 1.1 76 76 WNW 5 7 30.27 1025 10 16 0.00 0.00
9:53 am 09:53 Sunny 46 7.8 33 0.6 61 61 W 6 9 30.29 1026 10 16 0.00 0.00
10:53 am 10:53 Sunny 50 10 32 0 50 50 WNW 5 7 30.28 1025 10 16 0.00 0.00
11:53 am 11:53 Sunny 53 11.7 29 -1.7 40 40 WNW 12 19 30.24 1024 10 16 0.00 0.00
12:53 pm 12:53 Sunny 54 12.2 28 -2.2 37 37 WNW 10 17 30.20 1023 10 16 0.00 0.00
1:53 pm 13:53 Sunny 56 13.3 29 -1.7 36 36 WNW 9 15 30.18 1022 10 16 0.00 0.00
2:53 pm 14:53 Sunny 57 13.9 29 -1.7 34 34 WNW 9 15 30.15 1021 9 14 0.00 0.00
3:53 pm 15:53 Sunny 56 13.3 28 -2.2 34 34 WNW 8 13 30.15 1021 9 14 0.00 0.00
4:53 pm 16:53 Sunny 52 11.1 30 -1.1 43 43 NW 6 9 30.16 1021 10 16 0.00 0.00
5:53 pm 17:53 Clear 49 9.4 27 -2.8 43 43 Calm 30.16 1021 10 16 0.00 0.00
6:53 pm 18:53 Clear 44 6.7 37 2.8 76 76 Calm 30.16 1022 10 16 0.00 0.00
7:53 pm 19:53 Mostly Clear 44 6.7 30 -1.1 58 58 Calm 30.16 1022 10 16 0.00 0.00
8:53 pm 20:53 Clear 40 4.4 30 -1.1 68 68 Calm 30.16 1021 10 16 0.00 0.00
9:53 pm 21:53 Clear 41 5 36 2.2 82 82 Calm 30.16 1021 10 16 0.00 0.00
10:53 pm 22:53 Clear 40 4.4 32 0 73 73 Calm 30.15 1021 10 16 0.00 0.00
11:53 pm 23:53 Clear 38 3.3 34 1.1 86 86 Calm 30.15 1021 10 16 0.00 0.00

Powered by AerisWeather